STARLINK-31802, 59636

Orbit data source: Space-Track

STARLINK-31802, 59636 is a payload satellite owned by SpaceX/Seattle (US) in LEO that was launched on Fri, 03 May 2024 UTC via an FALCON 9 launch vehicle from the Air Force Eastern Test Range (AFETR). Payload-class satellites include a variety of spacecraft equipped with specific instruments for various scientific and technological missions. These include communications satellites like Starlink; space stations such as the ISS; scientific satellites like the Hubble; Earth observation satellites from companies like Planet Labs, Umbra, and HawkEye 360; GPS; miniature CubeSats for education and research; and military/defense satellites.

Loading next visibility...
Identifier
59636, 2024-082F
Orbit
LEO
Country
Flag of USUS
Related business
Manufacturer
SpaceX/Seattle
Mission
Operational Commercial Communications
Bus & Motor
STARLINK V2M, Unknown motor
Mass
730 kg wet, ~700 kg dry
Launch date (UTC)
2024-05-03 (2 years ago)
Launch vehicle
FALCON 9
Launch site
Air Force Eastern Test Range (AFETR)
Object type
Payload
Rocket body
Debris
Shape & HBR
Box + 2 Pan, 17.7 m
Radar Cross Section
33.884 m², Large (>1 m²)

Expand to show TLE details & history
Last TLE update: 2 days ago

TLE from 2 days ago
0 STARLINK-31802
1 59636U 24082F   26171.37584817  .00000010  00000-0  98816-5 0  9993
2 59636  43.0030 280.1375 0001418 266.6987  93.3702 15.27575414120519
Epoch: 2026-06-20T09:01Z
TLE epoch observation values (Epoch: 2026-06-20T09:01:13.281Z)
Latitude
-0.00007°
Longitude
-123.75928°
Altitude
482.896 km
Speed
7.626 km/s
True Right ascension
18h 40m 32s
True Declination
0° 00' 00"
Sunlit
Object was in full shadow at epoch
Visualization orbit readout
Latitude
Unknown
Longitude
Unknown
Altitude
Unknown
Speed
Unknown
Apparent Right ascension
Unknown
Apparent Declination
Unknown
Sunlit
N/A
Visualization observer readout
Local Sidereal Time
21:23:49
Azimuth
Unknown
Elevation
Unknown
Doppler factor
Unknown
Orbital elements
Apogee altitude
485.981 km
Perigee altitude
484.034 km
Semi-major axis
6,863.144 km
Eccentricity
0.00014
Inclination
43.003°
RAAN
280.1375°
Arg. of periapsis
266.6987°
True anomaly
93.38642°
Mean anomaly
93.3702°
Eccentric anomaly
93.37831°
Mean motion
3.81732 °/min
Orbital period
94.31 mins
BSTAR
0.0000098816
Loading maneuver chart data...
Computing Atmospheric mass density...
Loading historical data...
Loading historical data...
Loading historical data...
Loading historical data...
Loading historical data...
Loading historical data...
Loading historical data...

Documentation

Showing up to 5 results
|